Location: Zagreb
(45.8000°N, 16.0000°E)
Time: 00:37:12
(UTC+01:00)

Transit 2A Rocket - Pass Details

Date: 10 October 2020
Orbit: 586 x 916 km, 66.7° (Epoch: 28 October)

Event Time Altitude Azimuth Distance (km) Brightness Sun altitude
Rises 17:02:31 0° 263° (W) 3,550 10.1 11.9°
Reaches altitude 10° 17:05:46 10° 279° (W) 2,606 8.9 11.4°
Maximum altitude 17:10:11 20° 326° (NW) 1,945 7.3 10.7°
Drops below altitude 10° 17:14:31 10° 13° (NNE) 2,538 7.4 10.0°
Sets 17:17:39 0° 30° (NNE) 3,430 7.9 9.5°
